Location: Newark
(23.0150°N, 109.5536°W)
Time: 05:59:52
(UTC+00:00)

Starlink Launch 2 leader - Visible Passes

Search period start: 10 December 2019 00:00
Search period end: 20 December 2019 00:00
Orbit: 279 x 281 km, 53.0° (Epoch: 13 November)

Date Brightness Start Highest point End Pass type
(mag) Time Alt. Az. Time Alt. Az. Time Alt. Az.
11 Dec 5.3 12:57:05 10° NNE 12:57:42 11° NE 12:58:19 10° ENE visible
12 Dec 4.2 12:57:37 10° N 12:59:42 25° NE 13:01:48 10° ESE visible
13 Dec 2.1 13:00:02 19° NW 13:01:37 84° NE 13:04:03 10° SE visible
14 Dec 3.5 13:02:31 20° W 13:03:29 27° SW 13:05:37 10° S visible
15 Dec 4.8 13:05:05 10° WSW 13:05:18 10° WSW 13:05:34 10° SW visible
16 Dec 5.0 02:00:40 10° S 02:01:08 13° S 02:01:08 13° S visible
17 Dec 3.9 02:02:12 10° SW 02:03:43 33° SW 02:03:43 33° SW visible
18 Dec 4.3 02:04:25 10° WSW 02:06:14 25° WNW 02:06:14 25° WNW visible
19 Dec 5.4 02:07:45 10° WNW 02:08:34 11° NW 02:08:41 11° NW visible
